Regional Weather Roundup
Issued by NWS Northern Indiana

Home | Current Version | Previous Version | Graphics & Text | Print | Product List | Glossary On
Versions: 1 2 3 4 5 6 7 8 9 10 11 12 13 14 15 16 17 18 19 20 21 22 23 24 25 26 27 28 29 30 31 32 33 34 35 36 37 38 39 40 41 42 43 44 45 46 47 48 49 50
000
ASUS43 KIWX 032100
RWRIWX

KIWX WEATHER ROUNDUP
NATIONAL WEATHER SERVICE NORTHERN INDIANA
500 PM EDT WED JUN 03 2015

NOTE: "FAIR" INDICATES FEW OR NO CLOUDS BELOW 12,000 FEET WITH NO
SIGNIFICANT WEATHER AND/OR OBSTRUCTIONS TO VISIBILITY.

* THESE STATIONS ARE NOT UNDER NWS QUALITY CONTROL. THEY ALSO MAY NOT
  REPORT WEATHER SUCH AS PRECIPITATION OR FOG.

INZ001>027-032200-
NORTHERN INDIANA

CITY           SKY/WX    TMP DP  RH WIND       PRES   REMARKS
GARY*          PTSUNNY   73  55  53 NE7       30.02F
SOUTH BEND     MOSUNNY   73  52  47 VRB6      30.04F
ELKHART*       MOSUNNY   73  55  53 SE8       30.05S
GOSHEN         PTSUNNY   74  56  53 S12       30.04F
MONTICELLO*    MOSUNNY   74  56  53 SW5       30.03S
ANGOLA*        CLOUDY    72  63  73 S6        30.05F
FORT WAYNE     CLOUDY    70  58  65 E6        30.06S

$$
INZ028>050-032200-
CENTRAL INDIANA

CITY           SKY/WX    TMP DP  RH WIND       PRES   REMARKS
LAFAYETTE      SUNNY     73  55  53 S6        30.03S
KOKOMO*        CLOUDY    70  57  64 S8        30.04S
MUNCIE*        CLOUDY    69  56  62 SE6       30.05S
INDIANAPOLIS   PTSUNNY   69  54  58 SE12      30.03F

$$
MIZ043>046-050>051-056>058-064>065-071>073-077>080-032200-
SOUTHWEST LOWER MICHIGAN

CITY           SKY/WX    TMP DP  RH WIND       PRES   REMARKS
BATTLE CREEK   MOSUNNY   73  55  53 SE10      30.06F
BENTON HARBOR  SUNNY     67  52  58 VRB5      30.04S
COLDWATER*     CLOUDY    71  54  55 S6        30.05F
HILLSDALE*     PTSUNNY   73  55  53 E3        30.06S
HOLLAND        SUNNY     70  53  54 W8        30.05F
GRAND RAPIDS   MOSUNNY   75  53  46 S13       30.04F
KALAMAZOO      PTSUNNY   74  55  51 S13       30.05F
STURGIS*       CLOUDY    72  57  60 SE9       30.05S
THREE RIVERS*  CLOUDY    72  55  54 SE7       30.05F

$$
OHZ001>008-015>018-024>025-032200-
NORTHWEST OHIO

CITY           SKY/WX    TMP DP  RH WIND       PRES   REMARKS
DEFIANCE       CLOUDY    73  55  53 VRB3      30.04F
FINDLAY        MOSUNNY   74  58  57 SE9       30.03F
TOLEDO EXPRESS SUNNY     71  50  47 E9        30.05F
TOLEDO METCALF SUNNY     70  52  52 NE9       30.07F
LIMA           CLOUDY    72  58  61 SE6       30.04F

$$
AND FOR LAKE MICHIGAN COASTAL AND OPEN LAKE BUOY OBSERVATIONS

STATION/POSITION TEMP    WIND        PRES    VSBY  WAVE
                 AIR SEA DIR/SP/G                  HT/PER
                 (F)     (DEG/KT/KT) (MB)    (MI)  (FT/S)
CALUMET HARBOR    60      50/ 12/ 13   N/A
MICHIGAN CITY     60      10/  6/  8   N/A
BURNS HARBOR              60/  8/  9 1017.3S
SAINT JOSEPH      62     360/  7/  9 1017.6F
SOUTH LAKE BUOY   51 39  100/  8/  8 1017.2F         0
4 MI NW BRIDGMAN  58 58   80/  6/  8   N/A           0
MICHIGAN CITY     59 58   50/  8/ 10   N/A           1

$$
&&



USA.gov is the U.S. government's official web portal to all federal, state and local government web resources and services.